Voltar ao catálogo

MACSAT 1

M 1

AtivoMilitarPO
NORAD 20607·PAYLOAD·🇺🇸 United States

Lançado May 9, 1990 de Vandenberg Space Force Base

Loading…

Próximas Passagens (próximas 24 horas)

TLE

AtualizadoSource: Space-Track

Época: Sep 14, 2026, 10:12 UTC

1 20607U 90043A   26257.42511043  .00000577  00000-0  77184-4 0  9993
2 20607  89.7511 241.5676 0091037  42.4114 318.4095 14.75249967927535

Acompanhe MACSAT 1 em tempo real com AllMySat

Download on the App Store